Flag for U.S.A. Weather past 2 weeks in Mesquite, Texas, U.S.A.

Now
63 °F

Clear.


Feels Like: 63 °F
Forecast: 60 / 78 °F
Wind: No wind

Location: Mesquite Metro Airport

Current Time: Oct 23, 2014 at 5:10:08 AM

Latest Report: Oct 23, 2014 at 4:35 AM


Visibility: 10 mi

Pressure: 30.13 "Hg

Humidity: 69%

Dew point: 53 °F

Location of MesquiteLocation

Historic Weather in Mesquite — Graph

°F

Mesquite temperature yesterday

Maximum temperature yesterday: 81 °F (at 1:47 PM)
Minimum temperature yesterday: 57 °F (at 4:55 AM)
Average temperature yesterday: 66 °F

Past Weeks' High & Low Weather Summary

 TemperatureHumidityPressure
High91 °F (Oct 10, 2:50 PM)100% (Oct 12, 7:50 PM)30.19 "Hg (Oct 12, 7:50 PM)
Low46 °F (Oct 15, 7:50 AM)22% (Oct 14, 3:50 PM)29.59 "Hg (Oct 13, 2:35 AM)
Average66 °F73%29.98 "Hg
* Reported Oct 8 3:15 AM — Oct 23 3:55 AM, Mesquite, Weather by CustomWeather, © 2014

Note: Actual official high and low records may vary slightly from our data, if they occured in-between our weather recording intervals... More about our weather records

Advertising

Mesquite weather history for previous 24 hours

 ConditionsComfort  
Time TempWeatherWind HumidityBarometerVisibility
3:55 AM
Oct 23
63 °FPassing clouds.3 mph68%30.13 "Hg10 mi
3:35 AM63 °FPassing clouds.No wind68%30.13 "Hg10 mi
3:15 AM64 °FPassing clouds.3 mph66%30.12 "Hg10 mi
2:55 AM64 °FPassing clouds.3 mph66%30.12 "Hg10 mi
2:35 AM64 °FClear.No wind66%30.11 "Hg10 mi
2:15 AM64 °FClear.3 mph64%30.12 "Hg10 mi
1:55 AM65 °FClear.3 mph64%30.11 "Hg10 mi
1:15 AM66 °FClear.5 mph62%30.11 "Hg10 mi
12:55 AM66 °FClear.5 mph61%30.10 "Hg10 mi
12:35 AM66 °FClear.5 mph61%30.11 "Hg10 mi
12:15 AM67 °FClear.5 mph61%30.11 "Hg10 mi
11:55 PM
Oct 22
67 °FClear.5 mph61%30.12 "Hg10 mi
11:35 PM67 °FClear.3 mph59%30.12 "Hg10 mi
11:15 PM68 °FClear.3 mph57%30.12 "Hg10 mi
10:55 PM69 °FClear.6 mph55%30.12 "Hg10 mi
10:35 PM69 °FClear.8 mph56%30.12 "Hg10 mi
10:15 PM69 °FClear.8 mph57%30.12 "Hg10 mi
9:55 PM69 °FClear.7 mph56%30.13 "Hg10 mi
7:47 PM72 °FClear.3 mph53%30.09 "Hg10 mi
5:50 PM79 °FScattered clouds.6 mph45%30.08 "Hg10 mi
4:47 PM81 °FScattered clouds.6 mph39%30.08 "Hg10 mi
3:47 PM81 °FPartly sunny.7 mph39%30.08 "Hg10 mi
2:50 PM79 °FScattered clouds.7 mph45%30.09 "Hg10 mi
1:47 PM81 °FBroken clouds.9 mph42%30.11 "Hg10 mi
12:50 PM79 °FWarm.8 mph48%30.15 "Hg10 mi
11:50 AM77 °FSunny.7 mph54%30.17 "Hg10 mi
10:50 AM75 °FSunny.8 mph61%30.17 "Hg10 mi
9:50 AM68 °FSunny.6 mph83%30.16 "Hg7 mi
8:50 AM63 °FFog.No wind100%30.16 "Hg5 mi
7:50 AM57 °FFog.No wind94%30.13 "Hg5 mi
6:50 AM57 °FClear.No wind94%30.12 "Hg4 mi
5:35 AM58 °FClear.No wind96%30.09 "Hg7 mi
5:15 AM58 °FClear.No wind97%30.09 "Hg3 mi
Weather by CustomWeather, © 2014

See weather overviewHow to use our weather pages